Weather History for Mountain Home, ID

Change the Weather History Date:

Saturday, January 19, 2013

  Actual Average Record
Temperature  
Mean Temperature 6 °F 31 °F  
Max Temperature 16 °F 38 °F 59 °F (1971)
Min Temperature -4 °F 22 °F -19 °F (1922)
Degree Days  
Heating Degree Days 59 34  
Month to date heating degree days 904 668  
Cooling Degree Days 0 0  
Month to date cooling degree days 0 0  
Moisture  
Dew Point 1 °F    
Average Humidity 100    
Maximum Humidity 100    
Minimum Humidity 100    
Precipitation  
Precipitation T in 0.04 in 0.50 in (1998)
Month to date precipitation 0.11 0.74  
Sea Level Pressure  
Sea Level Pressure 30.66 in    
Wind  
Wind Speed 1 mph (East)    
Max Wind Speed 4 mph    
Max Gust Speed -    
Visibility 5 miles    
Events Fog , Snow    
T = Trace of Precipitation, MM = Missing Value Source: NWS Daily Summary

Daily Weather History Graph

Daily Weather History Graph

Search for Another Location

Airport:

Trip Planner

Search our weather history database for the weather conditions in past years. The results will help you decide how hot, cold, wet, or windy it might be!

Date:

Astronomy

Jan. 19, 2013 Rise Set
Actual Time 8:09 AM MST 5:39 PM MST
Civil Twilight 7:38 AM MST 6:10 PM MST
Nautical Twilight 7:03 AM MST 6:45 PM MST
Astronomical Twilight 6:29 AM MST 7:19 PM MST
Moon 12:09 PM MST (1/19) 1:45 AM MST (1/19)
Length of Visible Light 10h 32m
Length of Day
9h 29m
First Quarter, 58% of the Moon is Illuminated
Jan 19
First Quarter
Jan 26
Full
Feb 3
Last Quarter
Feb 10
New
Feb 17
First Quarter

Hourly Weather History & Observations

Time (MST) Temp. Windchill Dew Point Humidity Pressure Visibility Wind Dir Wind Speed Gust Speed Precip Events Conditions
12:58 AM -0.9 °F - -0.9 °F 100% 30.72 in 10.0 mi NE 2.3 mph - N/A   Partly Cloudy
1:25 AM -2.2 °F - -2.2 °F 100% 30.54 in 10.0 mi NE 2.3 mph - N/A   Clear
1:58 AM -2.0 °F - -2.0 °F 100% 30.74 in 10.0 mi Calm Calm - N/A   Clear
2:53 AM -4.0 °F - -4.0 °F 100% 30.55 in 9.0 mi Calm Calm - N/A   Clear
2:58 AM -3.1 °F - -3.1 °F 100% 30.75 in 9.0 mi Calm Calm - N/A   Clear
3:43 AM -4.0 °F - -4.0 °F 100% 30.55 in 10.0 mi ENE 1.2 mph - N/A   Clear
3:58 AM -3.5 °F - -3.5 °F 100% 30.74 in 10.0 mi NE 1.2 mph - N/A   Clear
4:18 AM -2.2 °F - -2.2 °F 100% 30.54 in 9.0 mi ENE 1.2 mph - N/A   Clear
4:58 AM -2.7 °F - -2.7 °F 100% 30.75 in 6.0 mi ESE 1.2 mph - N/A   Clear
5:23 AM -2.2 °F - -2.2 °F 100% 30.56 in 0.8 mi SSE 2.3 mph - N/A   Mist
5:28 AM -2.2 °F - -2.2 °F 100% 30.56 in 0.5 mi SE 2.3 mph - N/A Fog Light Freezing Fog
5:34 AM -0.4 °F -8.3 °F -0.4 °F 100% 30.56 in 0.2 mi SE 3.5 mph - N/A Fog Light Freezing Fog
6:58 AM -0.4 °F - -0.4 °F 100% 30.79 in 0.2 mi NE 2.3 mph - N/A Fog Light Freezing Fog
7:45 AM -2.2 °F - -2.2 °F 100% 30.57 in 0.5 mi NE 2.3 mph - N/A Fog Light Freezing Fog
7:52 AM -2.2 °F - -2.2 °F 100% 30.57 in 0.5 mi NE 2.3 mph - N/A Fog Light Freezing Fog
7:58 AM -2.0 °F - -2.0 °F 100% 30.79 in 0.2 mi NE 2.3 mph - N/A Fog Light Freezing Fog
8:08 AM -2.2 °F - -2.2 °F 100% 30.58 in 0.2 mi NE 2.3 mph - N/A Fog Light Freezing Fog
8:58 AM -0.9 °F - -0.9 °F 100% 30.81 in 0.2 mi Calm Calm - N/A Fog Light Freezing Fog
9:03 AM -0.4 °F - -0.4 °F 100% 30.60 in 0.2 mi Calm Calm - N/A Fog Light Freezing Fog
9:18 AM -0.4 °F - -0.4 °F 100% 30.60 in 0.5 mi Calm Calm - N/A Fog Light Freezing Fog
9:25 AM 1.4 °F - 1.4 °F 100% 30.60 in 0.8 mi East 1.2 mph - N/A   Mist
9:30 AM 1.4 °F - 1.4 °F 100% 30.61 in 1.2 mi SE 1.2 mph - N/A Snow Light Snow
9:35 AM 1.4 °F - 1.4 °F 100% 30.61 in 1.8 mi ESE 1.2 mph - N/A Snow Light Snow
9:40 AM 1.4 °F - 1.4 °F 100% 30.61 in 2.5 mi Calm Calm - N/A Snow Light Snow
9:52 AM 1.4 °F - 1.4 °F 100% 30.62 in 2.5 mi Calm Calm - N/A   Scattered Clouds
9:58 AM 2.1 °F - 2.1 °F 100% 30.83 in 3.0 mi Calm Calm - 0.00 in   Scattered Clouds
10:58 AM 8.6 °F - 8.6 °F 100% 30.82 in 10.0 mi SE 2.3 mph - 0.00 in Snow Light Snow
11:47 AM 12.2 °F - 12.2 °F 100% 30.61 in 9.0 mi East 1.2 mph - N/A   Mostly Cloudy
11:58 AM 11.8 °F - 11.8 °F 100% 30.79 in 9.0 mi Calm Calm - 0.00 in   Mostly Cloudy
12:18 PM 10.4 °F - 10.4 °F 100% 30.59 in 10.0 mi Calm Calm - N/A   Partly Cloudy
12:58 PM 11.1 °F - 11.1 °F 100% 30.78 in 10.0 mi Calm Calm - N/A   Clear
11:58 PM 0.7 °F - 0.7 °F 100% 30.75 in 3.0 mi Calm Calm - N/A   Clear